Radiation Dose at Monitoring Post of Fukushima Daini Nuclear Power Station
Date,Time,MP-1(microSv/h),MP-2(microSv/h),MP-3(microSv/h),MP-4(microSv/h),MP-5(microSv/h),MP-6(microSv/h),MP-7(microSv/h),Wind Direction,Wind Velocity(m/s),Rain
2024/06/17,00:00,0.148,0.132,0.218,0.202,0.208,0.116,0.076,north,2.7,No
2024/06/17,00:10,0.150,0.133,0.216,0.202,0.207,0.117,0.076,north,2.1,No
2024/06/17,00:20,0.148,0.131,0.216,0.203,0.209,0.118,0.076,north-northwest,1.7,No
2024/06/17,00:30,0.150,0.133,0.217,0.201,0.208,0.117,0.076,north-northwest,1.6,No
2024/06/17,00:40,0.149,0.132,0.217,0.202,0.207,0.117,0.076,north,1.0,No
2024/06/17,00:50,0.148,0.132,0.218,0.203,0.210,0.116,0.075,north-northwest,0.7,No
2024/06/17,01:00,0.150,0.133,0.217,0.201,0.208,0.116,0.076,northwest,1.3,No
2024/06/17,01:10,0.151,0.132,0.215,0.203,0.206,0.117,0.075,northwest,1.0,No
2024/06/17,01:20,0.148,0.132,0.218,0.202,0.209,0.118,0.076,north,1.2,No
2024/06/17,01:30,0.151,0.133,0.217,0.202,0.207,0.117,0.076,north-northwest,2.1,No
2024/06/17,01:40,0.150,0.133,0.217,0.203,0.206,0.117,0.077,north-northwest,2.7,No
2024/06/17,01:50,0.148,0.133,0.217,0.203,0.210,0.118,0.076,north-northwest,1.7,No
2024/06/17,02:00,0.150,0.132,0.215,0.201,0.207,0.117,0.076,north,1.0,No
2024/06/17,02:10,0.149,0.132,0.218,0.203,0.207,0.118,0.075,north-northwest,1.6,No
2024/06/17,02:20,0.149,0.133,0.216,0.202,0.209,0.117,0.076,north-northwest,2.5,No
2024/06/17,02:30,0.150,0.132,0.217,0.202,0.208,0.117,0.076,north-northwest,2.5,Yes
2024/06/17,02:40,0.150,0.134,0.219,0.204,0.209,0.118,0.078,north,2.2,Yes
2024/06/17,02:50,0.151,0.134,0.216,0.203,0.210,0.118,0.079,north-northwest,1.6,Yes
2024/06/17,03:00,0.151,0.134,0.219,0.205,0.210,0.118,0.078,-,CALM,No
2024/06/17,03:10,0.150,0.134,0.219,0.204,0.211,0.119,0.077,-,CALM,No
2024/06/17,03:20,0.150,0.134,0.219,0.203,0.209,0.119,0.077,north-northwest,1.1,No
2024/06/17,03:30,0.151,0.133,0.220,0.204,0.208,0.117,0.077,northwest,1.1,No
2024/06/17,03:40,0.150,0.133,0.218,0.203,0.211,0.118,0.077,northwest,0.9,No
2024/06/17,03:50,0.151,0.133,0.219,0.203,0.209,0.118,0.076,-,CALM,No
2024/06/17,04:00,0.149,0.134,0.218,0.204,0.208,0.119,0.077,north-northwest,0.6,No
2024/06/17,04:10,0.150,0.132,0.216,0.201,0.211,0.118,0.077,southeast,0.8,No
2024/06/17,04:20,0.150,0.133,0.218,0.204,0.207,0.117,0.077,southeast,1.2,No
2024/06/17,04:30,0.149,0.133,0.217,0.203,0.209,0.118,0.077,southeast,2.0,Yes
2024/06/17,04:40,0.150,0.133,0.219,0.202,0.209,0.118,0.077,southeast,2.4,Yes
2024/06/17,04:50,0.150,0.134,0.217,0.204,0.208,0.118,0.077,south-southeast,2.5,Yes
2024/06/17,05:00,0.149,0.133,0.219,0.201,0.210,0.118,0.077,south-southeast,3.0,No
2024/06/17,05:10,0.150,0.134,0.218,0.203,0.208,0.118,0.076,south,3.6,No
2024/06/17,05:20,0.149,0.132,0.217,0.203,0.208,0.118,0.076,south-southeast,2.7,No
2024/06/17,05:30,0.150,0.132,0.218,0.202,0.209,0.117,0.076,south-southeast,3.7,No
2024/06/17,05:40,0.150,0.133,0.217,0.204,0.207,0.117,0.077,south-southeast,3.0,No
2024/06/17,05:50,0.149,0.132,0.217,0.200,0.209,0.117,0.076,south,2.0,No
2024/06/17,06:00,0.150,0.132,0.217,0.203,0.208,0.117,0.076,south-southwest,1.1,No
2024/06/17,06:10,0.150,0.133,0.217,0.203,0.206,0.117,0.075,south,1.2,No
2024/06/17,06:20,0.149,0.132,0.217,0.200,0.209,0.116,0.077,south,1.6,No
2024/06/17,06:30,0.150,0.133,0.215,0.202,0.209,0.117,0.075,southwest,1.2,No
2024/06/17,06:40,0.150,0.133,0.217,0.203,0.207,0.117,0.075,south,1.1,No
2024/06/17,06:50,0.149,0.131,0.217,0.200,0.205,0.117,0.076,-,CALM,No
2024/06/17,07:00,0.148,0.131,0.216,0.200,0.207,0.116,0.075,north-northwest,1.5,No
2024/06/17,07:10,0.150,0.132,0.214,0.203,0.209,0.116,0.075,north-northwest,2.6,No
2024/06/17,07:20,0.150,0.133,0.218,0.202,0.208,0.117,0.075,west-northwest,3.8,No
2024/06/17,07:30,0.149,0.131,0.218,0.202,0.207,0.117,0.075,northwest,4.2,No
2024/06/17,07:40,0.148,0.131,0.217,0.201,0.205,0.117,0.075,northwest,6.2,No
2024/06/17,07:50,0.148,0.132,0.215,0.198,0.205,0.117,0.075,west-northwest,5.7,No
2024/06/17,08:00,0.148,0.132,0.216,0.199,0.207,0.116,0.075,west-northwest,6.5,No
2024/06/17,08:10,0.148,0.131,0.215,0.199,0.211,0.116,0.075,west-northwest,6.4,No
2024/06/17,08:20,0.147,0.132,0.215,0.199,0.209,0.116,0.076,west,5.7,No
2024/06/17,08:30,0.147,0.132,0.215,0.201,0.208,0.117,0.076,west-northwest,4.1,No
2024/06/17,08:40,0.149,0.132,0.216,0.200,0.208,0.116,0.077,west,2.9,No
2024/06/17,08:50,0.148,0.132,0.217,0.201,0.208,0.117,0.075,west,2.5,No
2024/06/17,09:00,0.149,0.132,0.216,0.202,0.208,0.117,0.076,west-northwest,3.4,No
2024/06/17,09:10,0.149,0.131,0.216,0.201,0.207,0.117,0.075,west-northwest,3.9,No
2024/06/17,09:20,0.148,0.132,0.216,0.202,0.207,0.117,0.076,northwest,4.4,No
2024/06/17,09:30,0.148,0.132,0.217,0.201,0.207,0.116,0.075,northwest,4.5,No
2024/06/17,09:40,0.148,0.133,0.216,0.201,0.207,0.117,0.076,west-northwest,4.4,No
2024/06/17,09:50,0.148,0.134,0.217,0.202,0.207,0.117,0.076,northwest,6.2,No
2024/06/17,10:00,0.149,0.132,0.217,0.202,0.207,0.117,0.075,west-northwest,9.0,No
2024/06/17,10:10,0.149,0.133,0.217,0.203,0.208,0.117,0.076,west-northwest,8.1,No
2024/06/17,10:20,0.150,0.133,0.218,0.203,0.208,0.118,0.076,west-northwest,7.8,No
2024/06/17,10:30,0.150,0.133,0.218,0.203,0.207,0.118,0.075,west-northwest,6.0,No
2024/06/17,10:40,0.150,0.132,0.218,0.204,0.208,0.117,0.076,west,6.6,No
2024/06/17,10:50,0.151,0.133,0.218,0.203,0.208,0.117,0.077,west-northwest,6.5,No
2024/06/17,11:00,0.150,0.133,0.218,0.203,0.208,0.117,0.076,west,7.8,No
2024/06/17,11:10,0.149,0.134,0.217,0.202,0.209,0.117,0.077,west,7.5,No
2024/06/17,11:20,0.151,0.134,0.217,0.204,0.208,0.117,0.076,west-northwest,5.7,No
2024/06/17,11:30,0.150,0.133,0.217,0.203,0.209,0.117,0.077,northwest,5.5,No
2024/06/17,11:40,0.150,0.134,0.218,0.203,0.208,0.118,0.076,northwest,4.9,No
2024/06/17,11:50,0.151,0.133,0.218,0.204,0.208,0.118,0.077,west-northwest,3.7,No
2024/06/17,12:00,0.150,0.133,0.218,0.203,0.210,0.117,0.076,west,3.9,No
2024/06/17,12:10,0.151,0.134,0.217,0.206,0.209,0.118,0.076,west-northwest,4.9,No
2024/06/17,12:20,0.151,0.133,0.218,0.205,0.210,0.118,0.076,west,3.0,No
2024/06/17,12:30,0.151,0.133,0.217,0.204,0.208,0.117,0.076,south,2.8,No
2024/06/17,12:40,0.150,0.132,0.217,0.203,0.207,0.117,0.076,south,2.4,No
2024/06/17,12:50,0.150,0.133,0.217,0.202,0.208,0.117,0.075,south-southeast,4.7,No
2024/06/17,13:00,0.150,0.132,0.216,0.202,0.207,0.117,0.076,south,5.3,No
2024/06/17,13:10,0.150,0.132,0.216,0.201,0.207,0.117,0.076,south-southeast,4.8,No
2024/06/17,13:20,0.150,0.132,0.217,0.202,0.207,0.117,0.076,south,4.7,No
2024/06/17,13:30,0.150,0.132,0.216,0.202,0.207,0.117,0.076,south,4.2,No
2024/06/17,13:40,0.149,0.132,0.216,0.201,0.206,0.117,0.076,south-southeast,4.9,No
2024/06/17,13:50,0.148,0.132,0.216,0.203,0.206,0.118,0.077,south-southeast,4.7,No
2024/06/17,14:00,0.149,0.133,0.217,0.203,0.207,0.117,0.076,south-southeast,3.6,No
2024/06/17,14:10,0.149,0.134,0.217,0.202,0.207,0.118,0.075,south-southeast,4.8,No
2024/06/17,14:20,0.150,0.132,0.216,0.203,0.207,0.118,0.076,south-southeast,5.1,No
2024/06/17,14:30,0.150,0.133,0.217,0.202,0.207,0.118,0.076,south,5.6,No
2024/06/17,14:40,0.150,0.133,0.216,0.202,0.208,0.117,0.075,south-southeast,5.6,No
2024/06/17,14:50,0.149,0.132,0.217,0.200,0.207,0.117,0.075,south-southeast,6.9,No
2024/06/17,15:00,0.148,0.133,0.216,0.202,0.207,0.119,0.075,south-southeast,6.9,No
2024/06/17,15:10,0.149,0.132,0.217,0.200,0.207,0.117,0.076,south-southeast,6.6,No
2024/06/17,15:20,0.148,0.132,0.216,0.201,0.207,0.118,0.075,south-southeast,7.1,No
2024/06/17,15:30,0.149,0.131,0.216,0.202,0.207,0.117,0.076,south-southeast,7.5,No
2024/06/17,15:40,0.149,0.134,0.217,0.201,0.207,0.118,0.077,south-southeast,6.7,No
2024/06/17,15:50,0.148,0.133,0.215,0.204,0.206,0.118,0.076,south,7.3,No
2024/06/17,16:00,0.149,0.132,0.216,0.204,0.206,0.118,0.076,south,6.8,No
2024/06/17,16:10,0.148,0.134,0.218,0.204,0.208,0.118,0.076,south,6.9,No
2024/06/17,16:20,0.151,0.132,0.219,0.203,0.207,0.117,0.076,south,7.0,No
2024/06/17,16:30,0.149,0.132,0.218,0.201,0.210,0.117,0.076,south,6.0,No
2024/06/17,16:40,0.149,0.133,0.217,0.202,0.210,0.117,0.076,south-southwest,5.1,No
2024/06/17,16:50,0.149,0.133,0.216,0.205,0.207,0.118,0.076,south,4.6,No
2024/06/17,17:00,0.148,0.133,0.218,0.204,0.208,0.118,0.075,south,4.8,No
2024/06/17,17:10,0.150,0.132,0.219,0.203,0.207,0.118,0.077,south,4.6,No
2024/06/17,17:20,0.151,0.133,0.217,0.201,0.210,0.116,0.076,south,5.5,No
2024/06/17,17:30,0.150,0.134,0.216,0.205,0.209,0.118,0.076,south,6.5,No
2024/06/17,17:40,0.148,0.133,0.217,0.205,0.208,0.118,0.076,south,5.9,No
2024/06/17,17:50,0.151,0.131,0.220,0.203,0.206,0.117,0.076,south,5.7,No
2024/06/17,18:00,0.150,0.133,0.217,0.202,0.210,0.118,0.076,south,5.3,No
2024/06/17,18:10,0.149,0.133,0.216,0.203,0.208,0.118,0.075,south-southwest,6.0,No
2024/06/17,18:20,0.148,0.132,0.219,0.204,0.207,0.118,0.076,south,5.4,No
2024/06/17,18:30,0.151,0.133,0.219,0.201,0.208,0.118,0.076,south,5.8,No
2024/06/17,18:40,0.151,0.133,0.217,0.202,0.209,0.117,0.076,south-southwest,6.5,No
2024/06/17,18:50,0.148,0.133,0.217,0.204,0.208,0.117,0.076,south-southwest,6.7,No
2024/06/17,19:00,0.150,0.133,0.219,0.203,0.206,0.118,0.076,south-southwest,5.1,No
2024/06/17,19:10,0.150,0.133,0.217,0.201,0.210,0.118,0.075,south-southwest,5.1,No
2024/06/17,19:20,0.149,0.133,0.217,0.204,0.210,0.118,0.076,south-southwest,5.5,No
2024/06/17,19:30,0.150,0.133,0.219,0.205,0.207,0.118,0.076,south-southwest,5.1,No
2024/06/17,19:40,0.151,0.133,0.218,0.203,0.207,0.118,0.076,south-southwest,5.9,No
2024/06/17,19:50,0.150,0.133,0.217,0.201,0.210,0.118,0.076,south-southwest,6.1,No
2024/06/17,20:00,0.149,0.133,0.219,0.204,0.207,0.117,0.076,south-southwest,6.1,No
2024/06/17,20:10,0.152,0.133,0.218,0.203,0.207,0.118,0.076,south-southwest,6.0,No
2024/06/17,20:20,0.150,0.132,0.216,0.203,0.209,0.119,0.076,south-southwest,6.3,No
2024/06/17,20:30,0.149,0.133,0.220,0.203,0.209,0.117,0.075,south-southwest,5.9,No
2024/06/17,20:40,0.150,0.134,0.219,0.204,0.207,0.117,0.077,south-southwest,5.8,No
2024/06/17,20:50,0.151,0.133,0.217,0.201,0.207,0.118,0.076,south-southwest,5.9,No
2024/06/17,21:00,0.149,0.134,0.218,0.201,0.210,0.118,0.076,south-southwest,5.8,No
2024/06/17,21:10,0.149,0.134,0.219,0.204,0.208,0.117,0.076,south-southwest,6.2,No
2024/06/17,21:20,0.151,0.133,0.217,0.203,0.207,0.117,0.077,south-southwest,6.0,No
2024/06/17,21:30,0.149,0.133,0.217,0.201,0.209,0.118,0.075,south-southwest,6.5,No
2024/06/17,21:40,0.148,0.133,0.219,0.204,0.209,0.117,0.076,south-southwest,6.1,No
2024/06/17,21:50,0.151,0.133,0.218,0.203,0.207,0.116,0.075,south-southwest,5.8,No
2024/06/17,22:00,0.151,0.132,0.216,0.202,0.208,0.117,0.075,south-southwest,5.9,No
2024/06/17,22:10,0.149,0.134,0.218,0.202,0.209,0.118,0.075,south-southwest,4.9,No
2024/06/17,22:20,0.150,0.133,0.218,0.205,0.209,0.118,0.076,south,5.3,No
2024/06/17,22:30,0.151,0.132,0.216,0.203,0.206,0.116,0.075,south,4.6,No
2024/06/17,22:40,0.150,0.134,0.219,0.201,0.210,0.118,0.075,south-southwest,5.6,No
2024/06/17,22:50,0.150,0.132,0.218,0.205,0.209,0.117,0.076,south,6.1,No
2024/06/17,23:00,0.151,0.132,0.217,0.204,0.206,0.117,0.076,south,5.4,No
2024/06/17,23:10,0.148,0.133,0.219,0.201,0.209,0.117,0.075,south,5.0,No
2024/06/17,23:20,0.150,0.133,0.218,0.203,0.210,0.119,0.076,south,5.2,No
2024/06/17,23:30,0.151,0.133,0.217,0.203,0.208,0.117,0.076,south,5.2,No
2024/06/17,23:40,0.150,0.134,0.218,0.201,0.209,0.117,0.076,south-southwest,4.6,No
2024/06/17,23:50,0.149,0.133,0.218,0.202,0.209,0.117,0.075,south-southwest,4.6,No
